Total_Precipitation_Accumulation
0.73 0.74 0.77 0.82 0.86 0.87 0.87 0.87 0.92 1.02 1.13 1.35 1.66 2.17 2.43 2.52 2.40 2.34 2.23 2.00 1.75 1.73 1.93 1.98 1.95 1.94 1.96 1.93 1.85 2.01 1.93 1.64 1.58 1.82 1.80 1.62 1.42 1.34 1.33 1.37 1.58 1.67 1.57
0.72 0.71 0.68 0.69 0.73 0.73 0.76 0.91 0.94 0.99 1.09 1.37 1.68 2.06 2.49 2.55 2.50 2.40 2.29 2.17 2.02 1.96 2.00 2.24 2.37 2.34 2.51 2.52 2.29 2.42 2.45 2.05 1.80 2.12 2.47 2.17 1.92 1.47 1.36 1.47 1.52 1.60 1.68
0.57 0.64 0.67 0.67 0.68 0.64 0.61 0.73 0.89 1.06 1.33 1.64 1.94 2.13 2.44 2.54 2.54 2.42 2.35 2.35 2.28 2.15 2.19 2.30 2.47 2.48 2.57 2.75 2.80 2.71 2.83 2.64 2.22 2.10 2.47 2.40 2.21 1.98 1.60 1.50 1.57 1.70 1.75
0.49 0.55 0.62 0.63 0.59 0.55 0.52 0.60 0.76 1.04 1.43 1.80 2.03 2.27 2.64 2.73 2.60 2.54 2.46 2.42 2.42 2.40 2.48 2.49 2.57 2.60 2.61 2.72 2.84 2.78 2.94 3.07 2.68 2.34 2.12 1.97 1.98 2.14 1.94 1.67 1.59 1.72 1.72
0.41 0.46 0.50 0.51 0.52 0.56 0.57 0.63 0.82 1.11 1.44 1.69 1.96 2.30 2.50 2.62 2.69 2.59 2.55 2.51 2.51 2.53 2.57 2.62 2.75 2.75 2.73 2.68 2.89 2.96 3.06 3.01 2.95 2.81 2.61 2.45 2.22 1.87 2.01 2.01 1.82 1.70 1.57
0.38 0.45 0.51 0.53 0.57 0.60 0.67 0.79 0.97 1.15 1.42 1.66 1.93 2.11 2.29 2.44 2.53 2.57 2.52 2.48 2.49 2.58 2.46 2.38 2.54 2.61 2.65 2.62 2.79 2.93 3.06 3.06 3.09 3.02 2.72 2.70 2.60 2.24 2.21 2.05 1.87 1.88 1.67
0.48 0.56 0.63 0.72 0.81 0.84 0.88 0.99 1.12 1.30 1.44 1.54 1.70 1.82 1.96 2.10 2.10 2.23 2.29 2.41 2.39 2.41 2.41 2.32 2.33 2.37 2.34 2.33 2.43 2.48 2.55 2.72 2.91 2.81 2.57 2.51 2.34 2.33 2.43 2.34 2.07 1.87 1.62
0.65 0.79 0.90 1.04 1.11 1.12 1.16 1.23 1.31 1.37 1.40 1.43 1.50 1.62 1.75 1.83 1.82 1.80 1.80 1.94 2.09 2.12 2.17 2.18 2.15 2.20 2.24 2.20 2.30 2.32 2.31 2.34 2.40 2.35 2.45 2.50 2.34 2.28 2.28 2.35 2.52 2.27 1.99
0.92 1.06 1.20 1.28 1.26 1.25 1.25 1.30 1.35 1.37 1.35 1.36 1.39 1.35 1.43 1.51 1.55 1.53 1.59 1.60 1.65 1.67 1.73 1.79 1.91 2.04 2.10 2.12 2.23 2.33 2.30 2.21 2.18 2.28 2.36 2.30 2.24 2.23 2.16 2.17 2.35 2.49 2.33
1.27 1.44 1.60 1.55 1.48 1.48 1.54 1.45 1.36 1.33 1.32 1.32 1.37 1.30 1.34 1.38 1.37 1.31 1.37 1.34 1.30 1.31 1.36 1.46 1.66 1.95 2.08 2.10 2.17 2.24 2.28 2.28 2.21 2.28 2.39 2.43 2.39 2.41 2.36 2.25 2.24 2.20 2.25
1.65 1.75 1.85 1.82 1.64 1.53 1.52 1.45 1.33 1.24 1.19 1.19 1.30 1.32 1.29 1.31 1.33 1.27 1.21 1.20 1.19 1.19 1.26 1.32 1.48 1.66 1.87 2.07 2.22 2.22 2.19 2.19 2.16 2.08 2.19 2.34 2.38 2.49 2.53 2.55 2.45 2.31 2.26
1.57 1.60 1.60 1.66 1.57 1.48 1.39 1.36 1.26 1.11 1.09 1.12 1.17 1.27 1.25 1.21 1.26 1.23 1.27 1.18 1.09 1.08 1.11 1.26 1.48 1.59 1.67 1.74 1.84 1.89 1.92 1.96 2.03 1.98 1.95 2.01 2.09 2.21 2.37 2.46 2.44 2.44 2.34
1.29 1.38 1.44 1.37 1.38 1.36 1.29 1.39 1.40 1.25 1.24 1.23 1.30 1.30 1.26 1.24 1.28 1.20 1.28 1.19 1.12 1.10 1.10 1.19 1.34 1.41 1.48 1.54 1.59 1.71 1.80 1.82 1.79 1.81 1.71 1.69 1.78 1.91 2.05 2.13 2.22 2.37 2.40
1.14 1.19 1.25 1.21 1.29 1.33 1.34 1.44 1.45 1.37 1.39 1.48 1.48 1.38 1.32 1.24 1.20 1.16 1.17 1.15 1.12 1.12 1.15 1.27 1.33 1.37 1.36 1.48 1.54 1.61 1.59 1.53 1.46 1.49 1.45 1.44 1.46 1.56 1.72 1.85 2.05 2.25 2.37
0.95 0.91 0.92 0.96 1.07 1.11 1.12 1.21 1.26 1.29 1.39 1.46 1.42 1.40 1.27 1.14 1.08 1.08 1.02 1.07 1.14 1.13 1.20 1.27 1.35 1.40 1.41 1.43 1.49 1.45 1.36 1.34 1.31 1.27 1.13 1.12 1.19 1.22 1.32 1.33 1.61 1.88 2.11
0.73 0.71 0.69 0.71 0.78 0.72 0.75 0.82 0.97 1.14 1.31 1.38 1.33 1.24 1.12 1.09 1.03 0.96 0.92 0.94 0.98 1.03 1.08 1.14 1.31 1.42 1.32 1.47 1.42 1.25 1.14 1.12 1.16 1.12 1.01 0.97 1.01 0.95 0.95 0.98 1.21 1.52 1.69
0.63 0.64 0.64 0.61 0.64 0.62 0.64 0.71 0.81 0.98 1.12 1.17 1.13 1.03 0.96 0.93 0.91 0.86 0.88 0.90 0.91 0.96 1.01 1.00 1.14 1.22 1.32 1.33 1.15 1.16 1.09 1.09 1.09 1.10 1.11 1.01 0.94 1.04 0.92 0.88 0.98 1.06 1.18
0.53 0.57 0.59 0.57 0.60 0.66 0.70 0.78 0.84 0.88 0.96 1.05 1.04 0.98 0.90 0.84 0.81 0.78 0.83 0.91 0.89 0.86 0.90 0.91 0.90 0.96 1.12 1.14 1.00 1.05 1.00 1.11 1.15 1.16 1.24 1.24 1.14 1.13 1.21 1.12 1.11 1.06 0.99
0.35 0.35 0.38 0.41 0.48 0.53 0.59 0.61 0.64 0.67 0.73 0.80 0.85 0.82 0.74 0.76 0.82 0.77 0.85 0.89 0.85 0.84 0.82 0.86 0.86 0.89 0.95 0.97 0.90 0.94 0.97 1.12 1.14 1.08 1.20 1.24 1.16 1.25 1.38 1.44 1.43 1.33 1.15
0.26 0.23 0.23 0.25 0.30 0.36 0.48 0.54 0.53 0.49 0.51 0.57 0.60 0.65 0.63 0.66 0.73 0.80 0.87 0.88 0.83 0.86 0.84 0.80 0.77 0.78 0.79 0.88 0.81 0.91 0.97 1.05 1.09 1.11 1.15 1.31 1.22 1.21 1.20 1.27 1.38 1.34 1.17
0.23 0.22 0.22 0.24 0.27 0.32 0.38 0.42 0.48 0.45 0.45 0.50 0.51 0.53 0.55 0.59 0.70 0.76 0.71 0.71 0.73 0.78 0.79 0.82 0.77 0.73 0.79 0.90 0.90 0.95 0.96 1.02 1.09 1.18 1.21 1.20 1.31 1.15 1.10 1.10 1.08 1.18 1.20
0.20 0.20 0.21 0.24 0.30 0.31 0.31 0.33 0.35 0.36 0.39 0.42 0.47 0.45 0.42 0.44 0.50 0.58 0.64 0.64 0.63 0.65 0.65 0.67 0.66 0.66 0.74 0.82 0.81 0.84 0.89 0.98 0.98 1.04 1.04 1.01 1.15 1.00 0.92 0.86 0.91 1.01 1.09
0.17 0.19 0.23 0.29 0.33 0.34 0.31 0.29 0.30 0.32 0.38 0.42 0.45 0.43 0.42 0.40 0.43 0.50 0.58 0.64 0.67 0.66 0.62 0.57 0.56 0.60 0.63 0.71 0.73 0.71 0.70 0.75 0.76 0.73 0.87 0.93 0.93 0.88 0.80 0.84 0.88 0.91 0.93
0.17 0.19 0.25 0.28 0.35 0.34 0.34 0.32 0.30 0.29 0.33 0.38 0.42 0.42 0.44 0.44 0.43 0.47 0.54 0.65 0.67 0.61 0.56 0.56 0.56 0.59 0.61 0.62 0.62 0.64 0.63 0.63 0.67 0.66 0.72 0.78 0.77 0.78 0.79 0.82 0.85 0.89 0.92
0.18 0.20 0.23 0.27 0.32 0.37 0.35 0.35 0.33 0.30 0.30 0.34 0.37 0.38 0.42 0.46 0.44 0.40 0.43 0.54 0.58 0.58 0.60 0.60 0.62 0.64 0.63 0.60 0.58 0.56 0.60 0.65 0.71 0.77 0.71 0.68 0.70 0.71 0.78 0.82 0.82 0.86 0.91
0.20 0.22 0.23 0.27 0.27 0.31 0.37 0.39 0.40 0.37 0.34 0.34 0.36 0.38 0.41 0.46 0.47 0.42 0.40 0.45 0.48 0.56 0.58 0.56 0.56 0.51 0.49 0.50 0.48 0.47 0.53 0.61 0.68 0.79 0.83 0.85 0.90 0.92 0.91 0.88 0.81 0.78 0.81